[[{"header":{"parameterUnit":"m.s-1","parameterCategory":1,"la1":30.2991,"la2":30.254,"lo1":-89.0895,"lo2":-89.0444,"dy":0.0017,"dx":0.0017,"nx":28,"ny":28,"refTime":"2025-08-22T09:00:00:Z","depth":0,"parameterNumber":2,"parameterNumberName":"U-component_of_WINDS"},"data":[0,0,0,0,0,0,0,0,0,0,0,0,0,0,0,0,0,0,0,0,0,0,0,0,0,0,0,0,0,0,0,0,0,0,0,0,0,0,0,0,0,0,0,0,0,0,0,0,0,0,0,0,0,0,0,0,0,0,1.9628,1.9629,0,1.9732,1.9734,1.9735,1.9721,1.972,1.9718,1.9716,1.9823,1.9828,1.9832,0,0,0,0,0,0,0,0,0,0,0,0,0,1.9415,1.9419,1.9628,1.9629,1.963,1.9732,1.9734,1.9735,1.9722,1.972,1.9718,1.9716,1.9822,1.9827,1.9833,0,0,0,0,0,0,0,0,0,0,0,0,0,1.9513,1.9421,1.9627,1.9636,1.9638,1.9732,1.9734,1.9735,1.9722,1.972,1.9717,1.9715,1.982,1.9827,1.9833,1.9926,0,0,1.9854,1.9857,0,0,0,0,0,0,0,0,1.9507,1.952,1.9633,1.9635,1.9638,1.9711,1.9698,1.9799,1.9723,1.969,1.9716,1.9713,1.9788,1.9797,1.9823,1.9931,1.9935,1.9854,1.9858,1.9861,1.9863,0,0,0,0,0,0,0,1.95,1.9516,1.9669,1.9635,1.9638,1.9634,1.9645,1.9717,1.9752,1.9693,1.9692,1.9705,1.9789,1.9816,1.9825,1.9937,1.9854,1.986,1.9864,1.9867,2.0125,2.0127,0,0,0,0,0,0,1.9491,1.951,1.9666,1.9672,1.9565,1.964,1.9652,1.969,1.9751,1.9758,1.9707,1.9704,1.9806,1.9817,1.9829,1.994,1.9861,1.9867,1.9871,2.0122,2.0125,2.0128,0,0,0,0,0,0,1.9487,1.9505,1.9662,1.9591,1.9611,1.9646,1.9689,1.9694,1.9721,1.9762,1.9768,1.9728,1.9804,1.9819,1.9901,1.9943,1.987,1.9876,2.0118,2.0123,2.0127,2.0163,0,0,0,0,0,0,1.9481,1.9504,1.954,1.9592,1.9615,1.9733,1.9692,1.9698,1.9732,1.9729,1.9784,1.979,1.9804,1.9892,1.9908,1.9951,1.9882,2.0115,2.012,2.0125,2.0158,2.0168,2.0177,0,0,0,0,0,1.9473,1.9546,1.9542,1.956,1.966,1.9735,1.9748,1.9762,1.9736,1.9772,1.9798,1.9789,1.9936,1.99,1.9919,1.9964,2.0112,2.0119,2.0125,2.0154,2.0166,2.0176,0,0,0,0,0,0,1.9498,1.9553,1.9549,1.9641,1.9683,1.9733,1.9779,1.9774,1.9826,1.9821,1.9836,1.9848,1.993,1.9956,1.9914,2.0056,2.0021,2.0031,2.0037,2.0048,2.0057,2.0049,1.9887,0,0,0,0,0,1.9514,1.9571,1.9616,1.9693,1.9714,1.9743,1.9776,1.9783,1.9828,1.9846,1.9878,1.9922,1.9978,2.0015,2.0069,2.0162,2.0173,2.0203,2.0212,2.0219,2.0228,2.0277,2.0291,2.0149,2.0149,2.0149,0,0,1.9548,1.9585,1.962,1.9699,1.9732,1.979,1.9758,1.9821,1.9864,1.9856,1.9935,1.996,2.001,2.0097,2.0138,2.0121,2.0269,2.0227,2.0233,2.0237,2.0285,2.0299,2.0311,2.0154,2.0153,2.0152,0,0,1.9639,1.9673,1.974,1.9775,1.9826,1.9845,1.9861,1.9911,1.9927,2.0007,2.0001,2.0053,2.0149,2.0185,2.0215,2.0318,2.0311,2.0336,2.0383,2.0431,2.0442,2.0452,2.0488,2.05,2.0344,2.0344,2.0344,0,1.9675,1.9762,1.9775,1.9839,1.9873,1.9868,1.9935,1.9968,2.0035,2.0058,2.0038,2.0159,2.0192,2.0287,2.0312,2.0338,2.0356,2.0329,2.044,2.045,2.0459,2.0493,2.0507,2.0347,2.0347,2.0346,2.0346,0,1.9802,1.9863,1.991,1.9974,2.0014,2.0079,2.0102,2.0141,2.0144,2.0164,2.0245,2.0284,2.0345,2.0369,2.0373,2.0464,2.0452,2.0436,2.0401,2.0475,2.0507,2.052,2.0351,2.035,2.0349,2.0348,0,0,1.9912,1.9982,1.9999,2.0027,2.0083,2.013,2.0195,2.0254,2.0286,2.0333,2.0386,2.0468,2.0453,2.0488,2.0496,2.0538,2.0616,2.0517,2.0518,2.0533,2.0717,2.0728,2.0743,2.0612,2.0614,2.0616,2.0713,0,2.0007,2.0121,2.0134,2.0236,2.0291,2.0286,2.0342,2.0383,2.0403,2.0453,2.0476,2.0532,2.0509,2.053,2.0572,2.0597,2.0653,2.0591,2.0661,2.0663,2.0647,2.076,2.0772,2.0861,2.0725,2.0728,2.0729,0,2.0134,2.0182,2.0289,2.0336,2.036,2.041,2.0465,2.0513,2.0558,2.057,2.0608,2.0611,2.0677,2.0639,2.0729,2.0687,2.0716,2.0733,2.0737,2.0743,2.07,2.0768,2.089,2.0903,2.0749,2.0748,2.0746,0,2.0201,2.0294,2.0369,2.0394,2.0451,2.0486,2.0512,2.0554,2.0589,2.0637,2.066,2.0715,2.0745,2.0788,2.0805,2.0776,2.0894,2.0858,2.0904,2.0904,2.0929,2.0927,2.1056,2.095,2.0949,2.0949,2.0949,0,2.0305,2.037,2.04,2.0446,2.0518,2.0533,2.0604,2.0628,2.0666,2.0716,2.0716,2.0764,2.0784,2.0834,2.0848,2.0919,2.0933,2.0944,2.0947,2.0944,2.0942,2.0962,2.0956,2.0953,2.0952,2.0951,2.0951,0,2.0393,2.0415,2.0496,2.0544,2.0557,2.0608,2.0649,2.0693,2.0713,2.0777,2.0792,2.0823,2.0882,2.0904,2.0976,2.0985,2.1068,2.1066,2.1052,2.1052,2.1097,2.1092,2.1243,2.1263,2.1145,2.1146,2.1147,0,2.0457,2.0507,2.056,2.0593,2.062,2.0674,2.0709,2.0726,2.0762,2.0817,2.0854,2.0913,2.096,2.1055,2.1083,2.1138,2.1137,2.1186,2.1145,2.1139,2.1136,2.1132,2.1136,2.1193,2.1194,2.1195,2.1196,0,2.0569,2.0577,2.0628,2.0682,2.0724,2.0768,2.081,2.0838,2.086,2.0901,2.0961,2.0998,2.1071,2.1129,2.1184,2.121,2.1207,2.1209,2.1222,2.1219,2.1208,2.1213,2.1072,2.1205,2.1204,2.1203,2.1203,2.1202,2.0646,2.069,2.0733,2.0789,2.0823,2.0862,2.0905,2.093,2.0981,2.1041,2.1048,2.1112,2.1155,2.1229,2.1258,2.1308,2.1294,2.1314,2.1319,2.1323,2.1326,2.1201,2.1318,2.1318,2.1318,2.1317,2.1317,0,2.0757,2.0785,2.0836,2.0895,2.0939,2.0932,2.0978,2.1015,2.1071,2.1111,2.1158,2.1226,2.1282,2.1315,2.1371,2.1404,2.1404,2.1418,2.1415,2.1421,2.1335,2.1318,2.1417,2.1417,2.1417,2.1417,2.1417,2.1417,2.082,2.0893,2.0906,2.0995,2.1022,2.1085,2.1111,2.1147,2.1179,2.1255,2.1302,2.1323,2.136,2.1418,2.1468,2.1476,2.1496,2.1512,2.1518,2.1438,2.1427,2.1417,2.1401,2.1516,2.1516,2.16,2.16,2.1601]},{"header":{"parameterUnit":"m.s-1","parameterCategory":1,"la1":30.2991,"la2":30.254,"lo1":-89.0895,"lo2":-89.0444,"dy":0.0017,"dx":0.0017,"nx":28,"ny":28,"refTime":"2025-08-22T09:00:00:Z","depth":0,"parameterNumber":3,"parameterNumberName":"V-component_of_WINDS"},"data":[0,0,0,0,0,0,0,0,0,0,0,0,0,0,0,0,0,0,0,0,0,0,0,0,0,0,0,0,0,0,0,0,0,0,0,0,0,0,0,0,0,0,0,0,0,0,0,0,0,0,0,0,0,0,0,0,0,0,2.3612,2.3613,0,2.3748,2.3749,2.3751,2.3768,2.3767,2.3765,2.3764,2.3896,2.3901,2.3905,0,0,0,0,0,0,0,0,0,0,0,0,0,2.336,2.3364,2.3612,2.3614,2.3615,2.3747,2.3749,2.3751,2.3768,2.3767,2.3765,2.3764,2.3895,2.39,2.3906,0,0,0,0,0,0,0,0,0,0,0,0,0,2.348,2.3366,2.3612,2.364,2.3644,2.3747,2.3749,2.3751,2.3768,2.3767,2.3765,2.3763,2.3893,2.39,2.3907,2.3989,0,0,2.3928,2.3931,0,0,0,0,0,0,0,0,2.3473,2.3489,2.3634,2.3638,2.3643,2.3739,2.3709,2.3831,2.3769,2.3721,2.3764,2.3762,2.3845,2.3856,2.3885,2.3995,2.4001,2.3929,2.3933,2.3936,2.3938,0,0,0,0,0,0,0,2.3464,2.3483,2.3665,2.3636,2.3641,2.3643,2.3658,2.3732,2.3792,2.3725,2.3727,2.3743,2.3847,2.3878,2.3889,2.4003,2.3929,2.3935,2.3939,2.3942,2.4184,2.4186,0,0,0,0,0,0,2.3452,2.3476,2.3661,2.3669,2.3551,2.3649,2.3666,2.371,2.3791,2.3802,2.3744,2.3743,2.3867,2.388,2.3893,2.3994,2.3936,2.3943,2.3947,2.4181,2.4184,2.4186,0,0,0,0,0,0,2.3447,2.3468,2.3656,2.3573,2.3597,2.3656,2.3705,2.3714,2.3745,2.3806,2.3816,2.3766,2.3866,2.3883,2.3965,2.3998,2.3946,2.3952,2.4179,2.4182,2.4185,2.4195,0,0,0,0,0,0,2.3439,2.3466,2.35,2.3574,2.3602,2.3727,2.3707,2.3718,2.3758,2.3758,2.3829,2.3839,2.3866,2.3954,2.3972,2.4007,2.3958,2.4176,2.418,2.4184,2.4192,2.4199,2.4204,0,0,0,0,0,2.343,2.3497,2.3502,2.3524,2.3646,2.3729,2.3745,2.3777,2.3761,2.3794,2.3832,2.3836,2.3992,2.3962,2.3982,2.402,2.4174,2.4179,2.4184,2.419,2.4197,2.4204,0,0,0,0,0,0,2.3423,2.3507,2.3514,2.3607,2.3661,2.3732,2.3775,2.3784,2.3843,2.384,2.3875,2.3891,2.397,2.4003,2.3969,2.4103,2.4081,2.409,2.4079,2.4086,2.4092,2.4082,2.3964,0,0,0,0,0,2.3433,2.3497,2.3565,2.364,2.3667,2.3716,2.3754,2.3774,2.3831,2.3854,2.3898,2.3951,2.4012,2.4051,2.411,2.4197,2.4211,2.4232,2.4238,2.4243,2.425,2.4296,2.4306,2.4203,2.4203,2.4202,0,0,2.3453,2.3506,2.3544,2.364,2.3685,2.3747,2.3736,2.3803,2.3848,2.3863,2.3943,2.3977,2.4038,2.4123,2.4162,2.4153,2.4282,2.4249,2.4252,2.4257,2.4302,2.4312,2.432,2.4206,2.4205,2.4205,0,0,2.3521,2.3569,2.3636,2.3681,2.3749,2.3781,2.3797,2.3867,2.3891,2.3972,2.3984,2.4037,2.4142,2.4184,2.422,2.4302,2.4307,2.432,2.435,2.4394,2.4403,2.441,2.4438,2.4447,2.4327,2.4327,2.4327,0,2.3537,2.3634,2.3669,2.3736,2.3776,2.3794,2.386,2.3901,2.3984,2.4011,2.4,2.413,2.4172,2.4266,2.4286,2.4314,2.4331,2.4312,2.4399,2.4407,2.4414,2.4441,2.4451,2.4328,2.4328,2.4328,2.4327,0,2.3648,2.3715,2.3761,2.3843,2.3888,2.3954,2.3997,2.4038,2.4054,2.4086,2.4166,2.4218,2.4287,2.4311,2.4326,2.4406,2.4398,2.4392,2.4371,2.4424,2.445,2.4461,2.4329,2.4329,2.4329,2.4328,0,0,2.3717,2.3817,2.3833,2.3869,2.3945,2.3996,2.4061,2.4131,2.4165,2.4221,2.4275,2.4362,2.4357,2.4397,2.4417,2.4456,2.4515,2.4446,2.4447,2.4456,2.4604,2.4607,2.4618,2.4519,2.4521,2.4523,2.4598,0,2.3793,2.3914,2.3946,2.4047,2.4107,2.4124,2.418,2.4231,2.4262,2.4316,2.4349,2.441,2.44,2.4424,2.4464,2.45,2.4545,2.4495,2.4567,2.4569,2.4551,2.4632,2.4636,2.4705,2.4609,2.461,2.4612,0,2.3899,2.3958,2.4066,2.4132,2.4159,2.4209,2.4275,2.4327,2.4383,2.4403,2.4447,2.4463,2.4528,2.4504,2.4593,2.4558,2.4589,2.4611,2.4614,2.4622,2.4593,2.4641,2.4728,2.4738,2.4628,2.4627,2.4626,0,2.3936,2.4043,2.4121,2.4152,2.4232,2.4266,2.4301,2.4356,2.4395,2.4451,2.4476,2.4538,2.4571,2.4618,2.4648,2.4628,2.4734,2.4713,2.475,2.4749,2.4772,2.477,2.4864,2.4793,2.4793,2.4793,2.4793,0,2.4018,2.4082,2.4139,2.4187,2.4258,2.4293,2.4362,2.4397,2.4445,2.4498,2.4515,2.4563,2.4601,2.4654,2.4678,2.4747,2.4762,2.4778,2.4783,2.4776,2.4774,2.4797,2.4792,2.4796,2.4795,2.4794,2.4794,0,2.4072,2.4113,2.4198,2.4267,2.4285,2.4335,2.4392,2.4438,2.4469,2.4535,2.4552,2.46,2.4663,2.4698,2.4776,2.4792,2.4869,2.4872,2.485,2.4853,2.4888,2.4884,2.5,2.5016,2.4934,2.4935,2.4936,0,2.4121,2.4171,2.4245,2.4283,2.4318,2.4378,2.4418,2.4453,2.4494,2.4562,2.4598,2.4662,2.4715,2.4813,2.4854,2.4913,2.4917,2.4953,2.4926,2.4916,2.4916,2.4912,2.4917,2.4958,2.4959,2.4959,2.496,0,2.4203,2.422,2.4279,2.4345,2.4393,2.4445,2.4497,2.4526,2.4569,2.4613,2.4679,2.472,2.48,2.4862,2.4924,2.4956,2.4964,2.4968,2.498,2.4973,2.4957,2.4965,2.4862,2.4965,2.4965,2.4964,2.4964,2.4964,2.4255,2.43,2.4359,2.4423,2.4466,2.4514,2.456,2.4597,2.4653,2.4723,2.4739,2.4807,2.4859,2.4944,2.4978,2.5029,2.5022,2.504,2.5044,2.5047,2.5048,2.495,2.5041,2.5041,2.504,2.504,2.504,0,2.4337,2.4376,2.4435,2.4508,2.4557,2.4563,2.462,2.466,2.4721,2.477,2.4823,2.4896,2.4956,2.5001,2.5061,2.5094,2.5099,2.5108,2.5106,2.5113,2.5051,2.5035,2.5103,2.5103,2.5103,2.5103,2.5103,2.5103,2.4386,2.4462,2.4486,2.4582,2.4619,2.4688,2.472,2.4763,2.4802,2.4885,2.4935,2.4965,2.5012,2.5076,2.513,2.5141,2.5162,2.5171,2.5182,2.5124,2.5117,2.5111,2.5095,2.5175,2.5175,2.5239,2.524,2.524]}]]